Hourly Weather Bolshoe Triznovo

Today, 30 July, Friday

Time Temperature Precipitation Wind Pressure Humidity
00:00 +21°C° 0 mm 1 mps 741 mmHg 77%
01:00 +21°C° 0 mm 1 mps 741 mmHg 78%
02:00 +19°C° 0 mm 2 mps 741 mmHg 80%
03:00 +19°C° 0.4 mm 2 mps 741 mmHg 83%
04:00 +19°C° 0.4 mm 2 mps 740 mmHg 87%
05:00 +19°C° 0.4 mm 2 mps 740 mmHg 90%
06:00 +21°C° 0.6 mm 1 mps 740 mmHg 90%
07:00 +21°C° 0.6 mm 1 mps 740 mmHg 91%
08:00 +21°C° 0.6 mm 1 mps 740 mmHg 92%
09:00 +23°C° 0.1 mm 2 mps 740 mmHg 85%
10:00 +25°C° 0.1 mm 2 mps 740 mmHg 77%
11:00 +26°C° 0.1 mm 3 mps 740 mmHg 70%
12:00 +27°C° 0.8 mm 4 mps 740 mmHg 70%
13:00 +27°C° 0.8 mm 5 mps 740 mmHg 70%
14:00 +27°C° 0.8 mm 6 mps 740 mmHg 70%
15:00 +27°C° 0.2 mm 6 mps 740 mmHg 70%
16:00 +26°C° 0.2 mm 6 mps 740 mmHg 70%
17:00 +26°C° 0.2 mm 6 mps 740 mmHg 70%
18:00 +23°C° 0 mm 4 mps 740 mmHg 75%
19:00 +22°C° 0 mm 3 mps 740 mmHg 79%
20:00 +20°C° 0 mm 2 mps 740 mmHg 84%
21:00 +20°C° 0 mm 2 mps 741 mmHg 82%
22:00 +20°C° 0 mm 2 mps 741 mmHg 79%
23:00 +20°C° 0 mm 3 mps 741 mmHg 77%

Tomorrow, 31 July, Saturday

Time Temperature Precipitation Wind Pressure Humidity
00:00 +19°C° 0 mm 3 mps 741 mmHg 79%
01:00 +18°C° 0 mm 3 mps 741 mmHg 81%
02:00 +17°C° 0 mm 3 mps 741 mmHg 83%
03:00 +17°C° 0 mm 3 mps 741 mmHg 82%
04:00 +18°C° 0 mm 3 mps 741 mmHg 81%
05:00 +18°C° 0 mm 3 mps 741 mmHg 80%
06:00 +19°C° 0 mm 4 mps 742 mmHg 73%
07:00 +21°C° 0 mm 5 mps 742 mmHg 66%
08:00 +23°C° 0 mm 5 mps 742 mmHg 59%
09:00 +24°C° 0 mm 6 mps 742 mmHg 54%
10:00 +26°C° 0 mm 6 mps 742 mmHg 50%
11:00 +27°C° 0 mm 6 mps 742 mmHg 46%
12:00 +28°C° 0 mm 6 mps 742 mmHg 43%
13:00 +28°C° 0 mm 6 mps 742 mmHg 41%
14:00 +29°C° 0 mm 6 mps 742 mmHg 39%
15:00 +28°C° 0 mm 6 mps 742 mmHg 42%
16:00 +27°C° 0 mm 5 mps 742 mmHg 45%
17:00 +27°C° 0 mm 4 mps 743 mmHg 48%
18:00 +25°C° 0 mm 4 mps 743 mmHg 54%
19:00 +22°C° 0 mm 3 mps 743 mmHg 60%
20:00 +20°C° 0 mm 2 mps 743 mmHg 66%
21:00 +20°C° 0 mm 2 mps 743 mmHg 68%
22:00 +19°C° 0 mm 2 mps 744 mmHg 70%
23:00 +18°C° 0 mm 2 mps 744 mmHg 73%

Day after tomorrow, 1 August, Sunday

Time Temperature Precipitation Wind Pressure Humidity
00:00 +18°C° 0 mm 2 mps 744 mmHg 73%
01:00 +18°C° 0 mm 2 mps 744 mmHg 74%
02:00 +18°C° 0 mm 2 mps 744 mmHg 75%
03:00 +18°C° 0 mm 2 mps 744 mmHg 74%
04:00 +18°C° 0 mm 2 mps 744 mmHg 74%
05:00 +19°C° 0 mm 2 mps 745 mmHg 73%
06:00 +21°C° 0 mm 3 mps 745 mmHg 68%
07:00 +23°C° 0 mm 4 mps 744 mmHg 63%
08:00 +26°C° 0 mm 5 mps 744 mmHg 58%
09:00 +27°C° 0 mm 5 mps 744 mmHg 53%
10:00 +29°C° 0 mm 5 mps 744 mmHg 49%
11:00 +32°C° 0 mm 6 mps 744 mmHg 44%
12:00 +32°C° 0 mm 6 mps 744 mmHg 42%
13:00 +33°C° 0 mm 7 mps 743 mmHg 39%
14:00 +34°C° 0 mm 7 mps 743 mmHg 36%
15:00 +33°C° 0 mm 6 mps 743 mmHg 40%
16:00 +32°C° 0 mm 6 mps 743 mmHg 43%
17:00 +32°C° 0 mm 5 mps 743 mmHg 46%
18:00 +29°C° 0 mm 4 mps 743 mmHg 51%
19:00 +27°C° 0 mm 3 mps 743 mmHg 57%
20:00 +25°C° 0 mm 3 mps 743 mmHg 63%
21:00 +24°C° 0 mm 2 mps 743 mmHg 69%
22:00 +23°C° 0 mm 2 mps 743 mmHg 75%
23:00 +22°C° 0 mm 1 mps 743 mmHg 82%

2 August, Monday

Time Temperature Precipitation Wind Pressure Humidity
00:00 +22°C° 0.1 mm 1 mps 743 mmHg 83%
01:00 +21°C° 0.1 mm 1 mps 743 mmHg 85%
02:00 +19°C° 0.1 mm 0 mps 743 mmHg 87%
03:00 +22°C° 0.1 mm 1 mps 743 mmHg 86%
04:00 +22°C° 0.1 mm 1 mps 742 mmHg 86%
05:00 +22°C° 0.1 mm 1 mps 742 mmHg 86%
06:00 +23°C° 0 mm 2 mps 742 mmHg 80%
07:00 +25°C° 0 mm 2 mps 742 mmHg 74%
08:00 +26°C° 0 mm 3 mps 742 mmHg 68%
09:00 +28°C° 0 mm 4 mps 742 mmHg 61%
10:00 +30°C° 0 mm 5 mps 741 mmHg 54%
11:00 +33°C° 0 mm 6 mps 741 mmHg 47%
12:00 +32°C° 0 mm 6 mps 741 mmHg 50%
13:00 +30°C° 0 mm 6 mps 740 mmHg 52%
14:00 +30°C° 0 mm 5 mps 740 mmHg 55%
15:00 +30°C° 0 mm 5 mps 740 mmHg 55%
16:00 +30°C° 0 mm 5 mps 739 mmHg 54%
17:00 +30°C° 0 mm 5 mps 738 mmHg 54%
18:00 +27°C° 0.7 mm 5 mps 739 mmHg 65%
19:00 +23°C° 0.7 mm 5 mps 739 mmHg 77%
20:00 +20°C° 0.7 mm 5 mps 740 mmHg 88%
21:00 +20°C° 0.1 mm 4 mps 740 mmHg 90%
22:00 +19°C° 0.1 mm 3 mps 740 mmHg 92%
23:00 +18°C° 0.1 mm 2 mps 740 mmHg 93%

3 August, Tuesday

Time Temperature Precipitation Wind Pressure Humidity
00:00 +18°C° 0.1 mm 3 mps 740 mmHg 94%
01:00 +18°C° 0.1 mm 4 mps 740 mmHg 94%
02:00 +18°C° 0.1 mm 4 mps 741 mmHg 94%
03:00 +18°C° 0 mm 4 mps 741 mmHg 93%
04:00 +18°C° 0 mm 4 mps 741 mmHg 93%
05:00 +18°C° 0 mm 4 mps 741 mmHg 93%
06:00 +18°C° 0 mm 4 mps 742 mmHg 86%
07:00 +19°C° 0 mm 4 mps 742 mmHg 80%
08:00 +20°C° 0 mm 4 mps 742 mmHg 73%
09:00 +21°C° 0 mm 4 mps 743 mmHg 66%
10:00 +23°C° 0 mm 4 mps 743 mmHg 59%
11:00 +25°C° 0 mm 4 mps 743 mmHg 52%
12:00 +25°C° 0.1 mm 4 mps 743 mmHg 51%
13:00 +26°C° 0.1 mm 4 mps 743 mmHg 50%
14:00 +26°C° 0.1 mm 4 mps 743 mmHg 49%
15:00 +25°C° 0 mm 4 mps 744 mmHg 54%
16:00 +24°C° 0 mm 3 mps 744 mmHg 59%
17:00 +22°C° 0 mm 3 mps 744 mmHg 63%
18:00 +21°C° 0 mm 3 mps 744 mmHg 66%
19:00 +20°C° 0 mm 3 mps 745 mmHg 68%
20:00 +19°C° 0 mm 2 mps 745 mmHg 70%
21:00 +18°C° 0 mm 2 mps 745 mmHg 72%
22:00 +17°C° 0 mm 2 mps 746 mmHg 74%
23:00 +16°C° 0 mm 2 mps 746 mmHg 76%

4 August, Wednesday

Time Temperature Precipitation Wind Pressure Humidity
00:00 +16°C° 0 mm 2 mps 746 mmHg 79%
01:00 +15°C° 0 mm 2 mps 746 mmHg 81%
02:00 +15°C° 0 mm 1 mps 746 mmHg 83%
03:00 +15°C° 0 mm 1 mps 747 mmHg 83%
04:00 +15°C° 0 mm 1 mps 747 mmHg 82%
05:00 +16°C° 0 mm 1 mps 747 mmHg 81%
06:00 +18°C° 0 mm 1 mps 747 mmHg 75%
07:00 +20°C° 0 mm 1 mps 748 mmHg 70%
08:00 +20°C° 0 mm 2 mps 748 mmHg 65%
09:00 +21°C° 0.1 mm 2 mps 748 mmHg 60%
10:00 +23°C° 0.1 mm 2 mps 748 mmHg 56%
11:00 +25°C° 0.1 mm 2 mps 748 mmHg 51%
12:00 +25°C° 0.2 mm 2 mps 748 mmHg 50%
13:00 +25°C° 0.2 mm 2 mps 748 mmHg 49%
14:00 +25°C° 0.2 mm 2 mps 748 mmHg 48%
15:00 +24°C° 0 mm 2 mps 748 mmHg 50%
16:00 +24°C° 0 mm 2 mps 748 mmHg 53%
17:00 +23°C° 0 mm 2 mps 748 mmHg 56%
18:00 +21°C° 0 mm 2 mps 748 mmHg 57%
19:00 +21°C° 0 mm 1 mps 749 mmHg 57%
20:00 +20°C° 0 mm 1 mps 749 mmHg 58%
21:00 +20°C° 0 mm 1 mps 749 mmHg 60%
22:00 +19°C° 0 mm 1 mps 749 mmHg 62%
23:00 +18°C° 0 mm 1 mps 749 mmHg 63%
Show more

We Need Your Consent

Meteoprog and our Service Providers may store and access personal data such as cookies, device identifiers or other similar technologies on your device and process such data to personalise content and ads, as well as provide social media features and to analyse the traffic.

  • Store and/or access information on your device

    Cookies, device identifiers or other information can be stored or accessed on your device for the purposes indicated above.

  • Personalised ads and content, ad and content measurement, audience insights, and products development

    Ads and content can be personalised based on a profile. More data can be added to better personalise ads and content. Ad and content performance can be measured. Insights about the audience who saw the ads and content can be derived. Such data can be used to develop or improve user’s experience, systems and software.

By clicking ‘I Agree’ you will allow the use of indicated cookies, device identifiers, web beacons or other similar technologies. Your settings can be changed in the browser on your device.

For certain purposes, legitimate interests may be relied on, rather than consent. You can read more about this in our Privacy and Cookie Policy.